Regional Weather Roundup
Issued by NWS

Home | Current Version | Previous Version | Graphics & Text | Print | Product List | Glossary On
Versions: 1 2 3 4 5 6 7 8 9 10 11 12 13 14 15 16 17 18 19 20 21 22 23 24 25 26 27 28 29 30 31 32 33 34 35 36 37 38 39 40 41 42 43 44 45 46 47 48 49 50
584
ASUS44 KLIX 260305
RWRLA
LOUISIANA WEATHER ROUNDUP
NATIONAL WEATHER SERVICE NEW ORLEANS LA
1000 PM CDT FRI JUL 25 2014

NOTE: "FAIR" INDICATES FEW OR NO CLOUDS BELOW 12,000 FEET WITH NO
      SIGNIFICANT WEATHER AND/OR OBSTRUCTIONS TO VISIBILITY.
      SKY/WX - SKY CONDITION AND SIGNIFICANT WEATHER.
      TMP - AIR TEMPERATURE.    DP   - DEWPOINT TEMPERATURE.
      RH  - RELATIVE HUMIDITY.  PRES - PRESSURE.
      HX  - HEAT INDEX.         WCI  - WIND CHILL INDEX.

*  THESE STATIONS ARE NOT NWS OR FAA STATIONS AND ARE NOT UNDER
   NWS QUALITY CONTROL.

LAZ040-048-061>063-065-066-069-260400-
SOUTHEAST LOUISIANA

CITY           SKY/WX    TMP DP  RH WIND       PRES   REMARKS
N.O. AUDUBON   NOT AVBL
N.O. INTL ARPT PTCLDY    81  75  82 SW10      30.02R
N.O. LAKEFRONT MOCLDY    84  75  74 SW12      30.02R
N.O. DOWNTOWN* FAIR      84  72  65 S7        30.02S
SLIDELL        CLOUDY    83  75  77 SW3       30.01R
BATON ROUGE    PTCLDY    83  74  74 SW8       30.01R
BOOTHVILLE     PTCLDY    84  76  76 SW9       30.05R
BELLE CHASSE   MOCLDY    79  74  84 SW6       30.01S
BOGALUSA*      RAIN      78  73  85 SW14      30.04S
GALLIANO*      NOT AVBL
NEW ROADS*     FAIR      82  75  81 S3        30.01R
GONZALES*      FAIR      77  77 100 CALM      30.02R
HAMMOND*       CLOUDY    82  73  74 SW6       30.03R
HOUMA*         MOCLDY    80  73  80 CALM      30.03R
PORT FOURCHON* PTCLDY    84  75  74 SW9       30.05S

$$

LAZ041-044-053-054-260400-
SOUTHWEST LOUISIANA

CITY           SKY/WX    TMP DP  RH WIND       PRES   REMARKS
LAKE CHARLES   PTCLDY    82  76  81 SW6       29.99S
LAFAYETTE      MOCLDY    81  76  84 VRB3      30.01R
PATTERSON      CLOUDY    79  75  89 SW3       30.06S
SALT POINT       N/A     87  77  72 VRB5      30.02R HX  99
NEW IBERIA     CLOUDY    81  77  88 SW5       30.02R
CHENAULT AIRPK PTCLDY    83  75  78 S6        30.00S

$$

LAZ027-028-260400-
CENTRAL LOUISIANA

CITY           SKY/WX    TMP DP  RH WIND       PRES   REMARKS
FORT POLK      CLEAR     80  76  87 S5        29.99R
ALEXANDRIA INT CLEAR     81  76  84 CALM      29.97R
ALEXANDRIA     CLEAR     80  76  87 CALM      29.99R

$$

LAZ001-002-260400-
NORTHWEST LOUISIANA

CITY           SKY/WX    TMP DP  RH WIND       PRES   REMARKS
SHREVEPORT     MOCLDY    80  75  84 CALM      29.97R
BARKSDALE AFB  PTCLDY    80  75  84 SE3       29.98R
DTN SHREVEPORT PTCLDY    79  73  82 CALM      29.97R

$$

LAZ014-016-260400-
NORTHEAST LOUISIANA

CITY           SKY/WX    TMP DP  RH WIND       PRES   REMARKS
MONROE         PTCLDY    80  75  84 CALM      29.99R
TALLULAH       CLEAR     76  73  91 SE5       29.99R

$$




USA.gov is the U.S. government's official web portal to all federal, state and local government web resources and services.